sat.trackr.live / text

‹ back to catalog

2025-013D

NORAD 62732 · 2025-013D

PAYLOAD ACTIVE UNKNOWN

§ Identity

Operator
Country
PRC
Launch date
2025-01-20
Launch site
JSC
Launch vehicle
Mass (kg)
RCS (m²)

External: N2YO · Heavens-Above · Gunter

§ Orbital elements

Epoch: 2026-09-22T22:09:53.025696Z

Period
95.25 min
Inclination
97.6631°
Eccentricity
0.0009718
Mean motion
15.11863462 rev/d
Perigee alt
523.8 km
Apogee alt
537.2 km
Semi-major
6,908.7 km
B*
1.1941e-4
RAAN
75.5226°
Arg perigee
60.0823°
Mean anomaly
300.1371°
Rev number
9,204

§ Raw data

2025-013D1 62732U 25013D   26265.92353039  .00001977  00000+0  11941-3 0  99982 62732  97.6631  75.5226 0009718  60.0823 300.1371 15.11863462 92042

JSON: /api/v1/satellites/62732 · /tle

For live sub-satellite position, see the globe view (requires WebGL).

§ Visibility from observer

Set your observer location to see the next 7 days of passes ≥ 10°. The values pass through the URL so the page stays shareable.

No JS? Fill the form by hand. The geolocation button needs JavaScript.